Location: Besigheim
(48.9980°N, 9.1427°E)
Time: 11:33:28
(UTC+00:00)

SL-24 R/B - RUBIN 2 - Pass Details

Date: 06 September 2025
Orbit: 600 x 987 km, 64.6° (Epoch: 14 December)

Event Time Altitude Azimuth Distance (km) Brightness Sun altitude
Rises 18:47:03 0° 201° (SSW) 3,529 7.4 -9.0°
Reaches altitude 10° 18:49:44 10° 197° (SSW) 2,539 6.7 -9.4°
Maximum altitude 18:55:24 52° 123° (ESE) 1,011 4.3 -10.3°
Drops below altitude 10° 19:00:32 10° 47° (NE) 2,296 6.2 -11.1°
Sets 19:02:51 0° 43° (NE) 3,165 7.0 -11.4°
